Content
SEND FEEDBACK

Daily
Averages
Monthly
Summary
United States of America

TESUQUE, NEW MEXICO


Home > North America > United States > New Mexico
Elevation: 6846 feet     Latitude: 35 39N     Longitude: 105 58W

WEATHER
 
SELECT A DAY
Number of Records: 172,310;   Date Range: 1/1/95 - 8/12/14
 
SHARE

PRINT THIS DATA

[ ← Previous Day ]
WEATHER ALMANAC - JANUARY 23, 2013
[ Next Day → ]
[ °C ]   °F
Weather ElementAverageHighLow
Temperature36.1 °F53.1 °F (1:53 pm)23 °F (2:53 am)
Dewpoint9.5 °F12.9 °F (1:53 am)3.9 °F (2:53 pm)
Humidity37 %63 % (2:53 am)14 % (2:53 pm)
Barometer30.31 in30.44 in (8:53 am)30.25 in (1:53 pm)
Wind Speed10.2 mph20.7 mph (9:53 am)
Wind Gust25.3 mph (9:53 am)
Weather ElementAverage
Visibility9.6 mi
Wind DirectionSW (225.4 °)

Weather ElementTotal
Precipitation---
Heating Degree Days27 (Base 65)
Averaged from 24 records on January 23, 2013
WEATHER CONDITIONS BREAKOUT
WIND DIRECTION BREAKOUT
WEATHER BY HOUR - JANUARY 23, 2013
[ °C ]   °F
Local TimeTemperatureDewpointHumidityBarometerVisibilityWind DirectionWind SpeedGust SpeedPrecipitationEventsConditions
1:53 AM26.1 °F12.9 °F58 %30.29 in10.0 miNNE (20°)15.0 mphClear
2:53 AM23.0 °F12.0 °F63 %30.29 in10.0 miNorth (360°)9.2 mphClear
3:53 AM24.1 °F12.0 °F60 %30.27 in10.0 miNorth (10°)17.3 mph21.9 mphClear
4:53 AM23.0 °F10.0 °F58 %30.29 in10.0 miNorth (350°)12.7 mphClear
5:53 AM24.1 °F9.0 °F53 %30.34 in10.0 miNNW (340°)16.1 mphClear
6:53 AM24.1 °F8.1 °F51 %30.38 in10.0 miNorth (350°)12.7 mphClear
7:53 AM28.9 °F8.1 °F41 %30.36 in10.0 miNorth (350°)10.4 mphClear
8:53 AM28.0 °F9.0 °F45 %30.44 in10.0 miNorth (360°)16.1 mph23.0 mphClear
9:53 AM35.1 °F7.0 °F31 %30.36 in10.0 miNorth (350°)20.7 mph25.3 mphClear
10:53 AM39.9 °F6.1 °F25 %30.34 in10.0 miNorth (360°)15.0 mphClear
11:53 AM44.1 °F6.1 °F21 %30.31 in10.0 miNorth (360°)15.0 mphClear
12:53 PM48.9 °F7.0 °F18 %30.27 in10.0 miNNE (20°)4.6 mphClear
1:53 PM53.1 °F7.0 °F16 %30.25 in10.0 miWest (260°)11.5 mphClear
2:53 PM52.0 °F3.9 °F14 %30.27 in10.0 miWSW (250°)5.8 mphClear
3:48 PM51.8 °F8.6 °F18 %30.32 in1.2 miVariable4.6 mphHaze
3:53 PM52.0 °F8.1 °F17 %30.27 in10.0 miWSW (240°)5.8 mphClear
4:53 PM48.9 °F10.0 °F21 %30.29 in10.0 miCalmClear
5:53 PM36.0 °F12.0 °F37 %30.34 in10.0 miNorth (360°)8.1 mphClear
6:53 PM34.0 °F12.0 °F40 %30.35 in10.0 miNNE (20°)6.9 mphClear
7:53 PM30.9 °F12.0 °F46 %30.34 in10.0 miCalmClear
8:53 PM35.1 °F12.0 °F39 %30.32 in10.0 miNNW (340°)3.5 mphClear
9:53 PM36.0 °F10.9 °F36 %30.29 in10.0 miNorth (10°)12.7 mphClear
10:53 PM34.0 °F12.0 °F40 %30.29 in10.0 miNorth (360°)10.4 mphClear
11:53 PM34.0 °F12.0 °F40 %30.26 in10.0 miNNW (340°)11.5 mphClear
Hourly data recorded from KSAF, located miles away from Tesuque, New Mexico







STORIES FROM OUR PARTNERS